Le nostre stazioni meteo in Italia

Pubblicità
Il mio iltempo24.it
Casale Monferrato, Italia (16068): Temperatura & dewpoint: 15.09.2018 05:00:00 - 21.09.2018 05:00:00 (CEST)Casale Monferrato, Italia (16068): velocità del vento: 15.09.2018 05:00:00 - 21.09.2018 05:00:00 (CEST)Casale Monferrato, Italia (16068): direzione del vento: 15.09.2018 05:00:00 - 21.09.2018 05:00:00 (CEST)Casale Monferrato, Italia (16068): reduced air pressure: 15.09.2018 05:00:00 - 21.09.2018 05:00:00 (CEST)Casale Monferrato, Italia (16068): precipitazioni: 15.09.2018 05:00:00 - 21.09.2018 05:00:00 (CEST)
Data & Tempo tt [°C] td [°C] ff [km/h] ff [kn] dd ppp [hPa] rr [mm]
21.09.2018 05:00:00 - - - - - - -
21.09.2018 04:00:00 19,5 17,8 4 2 NO 1017,0 -
21.09.2018 03:00:00 20,3 18,5 4 2 ONO 1017,3 -
21.09.2018 02:00:00 20,4 18,8 5 3 ONO 1017,7 0,0
21.09.2018 01:00:00 19,2 17,5 4 2 NO 1017,8 -
21.09.2018 00:00:00 20,0 17,9 2 1 ONO 1017,8 -
20.09.2018 23:00:00 20,8 18,3 4 2 O 1017,7 -
20.09.2018 22:00:00 21,4 18,5 2 1 OSO 1017,7 -
20.09.2018 21:00:00 23,2 18,2 4 2 O 1017,4 -
20.09.2018 20:00:00 25,4 18,8 4 2 NE 1017,1 0,0
20.09.2018 19:00:00 27,5 19,5 5 3 ENE 1016,9 -
20.09.2018 18:00:00 28,7 19,6 5 3 ENE 1016,8 -
20.09.2018 17:00:00 29,2 20,6 4 2 NE 1017,1 -
20.09.2018 16:00:00 29,6 21,0 5 3 ONO 1017,6 -
20.09.2018 15:00:00 29,0 21,5 5 3 NNE 1018,2 -
20.09.2018 14:00:00 27,6 21,3 4 2 N 1018,9 0,0
20.09.2018 13:00:00 26,9 21,6 4 2 N 1019,6 -
20.09.2018 12:00:00 25,8 21,8 4 2 SSE 1020,2 -
20.09.2018 11:00:00 23,3 21,0 4 2 N 1020,7 -
20.09.2018 10:00:00 21,4 19,6 8 4 N 1020,7 -
20.09.2018 09:00:00 20,4 19,0 5 3 NNO 1020,5 -
20.09.2018 08:00:00 18,3 16,9 2 1 O 1020,4 0,0
20.09.2018 07:00:00 18,3 16,7 4 2 NNO 1020,0 -
20.09.2018 06:00:00 19,5 18,1 4 2 NO 1020,0 -
20.09.2018 05:00:00 19,6 18,0 2 1 ONO 1020,0 -
20.09.2018 04:00:00 19,9 18,3 4 2 ONO 1019,9 -
20.09.2018 03:00:00 20,4 18,8 8 4 NO 1020,1 -
20.09.2018 02:00:00 20,0 18,4 4 2 ONO 1020,2 0,0
20.09.2018 01:00:00 19,9 18,1 4 2 NO 1020,4 -
20.09.2018 00:00:00 20,5 18,7 4 2 ONO 1020,1 -
19.09.2018 23:00:00 21,2 19,1 5 3 O 1019,8 -
19.09.2018 22:00:00 22,1 19,0 4 2 O 1019,7 -
19.09.2018 21:00:00 23,8 19,5 0 0 N 1019,0 -
19.09.2018 20:00:00 24,9 19,7 4 2 ENE 1018,5 0,0
19.09.2018 19:00:00 26,3 19,9 8 4 ENE 1018,2 -
19.09.2018 18:00:00 28,5 20,2 8 4 NE 1017,6 -
19.09.2018 17:00:00 28,8 20,2 5 3 E 1017,8 -
19.09.2018 16:00:00 29,3 20,7 5 3 SSO 1018,3 -
19.09.2018 15:00:00 28,5 21,0 5 3 NE 1018,5 -
19.09.2018 14:00:00 28,3 21,5 4 2 SE 1019,4 0,0
19.09.2018 13:00:00 26,9 21,6 4 2 ONO 1020,1 -
19.09.2018 12:00:00 25,1 21,3 5 3 ENE 1020,5 -
19.09.2018 11:00:00 23,1 20,9 4 2 N 1020,8 -
19.09.2018 10:00:00 21,9 20,3 4 2 NNO 1020,7 -
19.09.2018 09:00:00 19,5 18,3 2 1 OSO 1020,6 -
19.09.2018 08:00:00 18,0 16,6 4 2 O 1020,0 0,0
19.09.2018 07:00:00 17,9 16,5 4 2 O 1019,6 -
19.09.2018 06:00:00 18,2 16,6 0 0 N 1019,4 -
19.09.2018 05:00:00 19,8 18,4 5 3 ONO 1019,4 -
19.09.2018 04:00:00 20,2 18,6 2 1 ONO 1019,6 -
19.09.2018 03:00:00 20,3 18,7 5 3 NO 1019,8 -
19.09.2018 02:00:00 20,3 18,9 8 4 NO 1019,8 0,0
19.09.2018 01:00:00 19,6 17,9 0 0 N 1019,7 -
19.09.2018 00:00:00 19,9 18,1 4 2 ONO 1019,6 -
18.09.2018 23:00:00 20,5 18,6 2 1 O 1019,2 -
18.09.2018 22:00:00 21,7 19,0 2 1 ONO 1019,1 -
18.09.2018 21:00:00 22,9 18,8 2 1 O 1018,6 -
18.09.2018 20:00:00 24,4 19,4 2 1 ENE 1017,6 0,0
18.09.2018 19:00:00 26,5 20,1 9 5 E 1017,2 -
18.09.2018 18:00:00 27,8 20,1 4 2 SE 1017,4 -
18.09.2018 17:00:00 27,9 20,7 4 2 NNE 1017,5 -
18.09.2018 16:00:00 27,1 19,9 8 4 ENE 1018,0 -
18.09.2018 15:00:00 26,6 19,7 4 2 O 1018,6 -
18.09.2018 14:00:00 26,3 20,3 5 3 N 1019,3 0,0
18.09.2018 13:00:00 25,9 21,3 5 3 NNE 1019,8 -
18.09.2018 12:00:00 24,8 21,7 4 2 NE 1020,5 -
18.09.2018 11:00:00 22,2 20,2 4 2 NO 1020,8 -
18.09.2018 10:00:00 20,9 19,1 5 3 NO 1020,8 -
18.09.2018 09:00:00 19,7 18,1 5 3 NO 1020,5 -
18.09.2018 08:00:00 18,2 16,8 0 0 N 1020,3 0,0
18.09.2018 07:00:00 19,1 17,7 2 1 NNO 1019,8 -
18.09.2018 06:00:00 19,3 17,9 4 2 ONO 1019,8 -
18.09.2018 05:00:00 19,4 18,0 2 1 ONO 1019,7 -
18.09.2018 04:00:00 19,9 18,5 4 2 O 1019,5 -
18.09.2018 03:00:00 19,5 18,1 0 0 N 1019,8 -
18.09.2018 02:00:00 19,7 18,3 2 1 ONO 1020,0 0,0
18.09.2018 01:00:00 19,4 17,8 2 1 NO 1020,0 -
18.09.2018 00:00:00 19,7 18,1 0 0 N 1020,1 -
17.09.2018 23:00:00 19,5 17,8 2 1 OSO 1020,2 -
17.09.2018 22:00:00 20,9 19,1 2 1 O 1019,9 -
17.09.2018 21:00:00 21,7 19,4 0 0 N 1019,7 -
17.09.2018 20:00:00 23,2 20,3 0 0 N 1019,0 -
17.09.2018 19:00:00 24,3 20,6 9 5 S 1018,5 -
17.09.2018 18:00:00 26,2 19,8 8 4 SE 1018,5 -
17.09.2018 17:00:00 27,0 20,0 5 3 NNO 1018,7 -
17.09.2018 16:00:00 27,7 21,7 4 2 NO 1019,3 -
17.09.2018 15:00:00 25,2 20,8 9 5 NO 1020,3 -
17.09.2018 14:00:00 25,7 22,3 9 5 NNO 1021,2 0,0
17.09.2018 13:00:00 23,1 21,7 8 4 NE 1021,9 -
17.09.2018 12:00:00 21,6 20,0 2 1 OSO 1022,3 -
17.09.2018 11:00:00 20,6 19,0 4 2 SSE 1022,8 -
17.09.2018 10:00:00 20,2 19,0 4 2 SE 1022,5 -
17.09.2018 09:00:00 19,1 17,7 0 0 N 1022,0 -
17.09.2018 08:00:00 18,9 17,5 5 3 SE 1021,7 0,0
17.09.2018 07:00:00 19,9 18,5 4 2 N 1021,4 -
17.09.2018 06:00:00 20,0 18,4 8 4 NO 1021,3 -
17.09.2018 05:00:00 19,4 17,8 4 2 O 1021,5 -
17.09.2018 04:00:00 20,0 18,2 4 2 ONO 1021,5 -
17.09.2018 03:00:00 20,0 18,4 2 1 ONO 1021,5 -
17.09.2018 02:00:00 20,6 18,8 5 3 NO 1021,6 0,0
17.09.2018 01:00:00 21,2 19,6 5 3 NO 1021,8 -
17.09.2018 00:00:00 21,6 20,0 8 4 NNO 1021,9 -
16.09.2018 23:00:00 21,9 20,1 8 4 NNO 1021,7 -
16.09.2018 22:00:00 22,7 20,9 9 5 N 1021,5 -
16.09.2018 21:00:00 23,5 21,3 9 5 NNO 1021,4 -
16.09.2018 20:00:00 24,5 21,4 8 4 N 1020,8 0,0
16.09.2018 19:00:00 26,1 19,9 8 4 N 1020,3 -
16.09.2018 18:00:00 27,3 21,5 9 5 NO 1020,2 -
16.09.2018 17:00:00 27,8 21,1 5 3 NO 1020,5 -
16.09.2018 16:00:00 26,9 20,7 8 4 NNE 1020,7 -
16.09.2018 15:00:00 26,3 20,3 4 2 N 1021,3 -
16.09.2018 14:00:00 25,6 21,4 8 4 N 1021,7 0,0
16.09.2018 13:00:00 25,6 22,2 4 2 O 1022,0 -
16.09.2018 12:00:00 24,1 21,6 5 3 NNE 1022,4 -
16.09.2018 11:00:00 23,7 22,1 2 1 NO 1022,3 -
16.09.2018 10:00:00 21,6 20,2 2 1 SO 1022,4 -
16.09.2018 09:00:00 20,4 19,0 4 2 ESE 1021,9 -
16.09.2018 08:00:00 19,9 18,7 0 0 N 1021,9 0,0
16.09.2018 07:00:00 19,9 18,5 4 2 NE 1021,2 -
16.09.2018 06:00:00 20,1 18,7 4 2 NO 1021,2 -
16.09.2018 05:00:00 19,9 18,7 5 3 N 1020,9 -
16.09.2018 04:00:00 20,2 18,8 4 2 NO 1021,3 -
16.09.2018 03:00:00 20,1 18,9 5 3 NNO 1021,6 -
16.09.2018 02:00:00 19,9 18,5 4 2 O 1021,1 0,0
16.09.2018 01:00:00 20,6 19,0 0 0 N 1021,2 -
16.09.2018 00:00:00 21,6 20,0 5 3 NE 1020,9 -
15.09.2018 23:00:00 21,6 19,8 0 0 N 1020,7 -
15.09.2018 22:00:00 22,4 20,1 0 0 N 1020,3 -
15.09.2018 21:00:00 23,6 20,1 0 0 N 1020,0 -
15.09.2018 20:00:00 25,1 20,5 4 2 ENE 1019,2 -
15.09.2018 19:00:00 26,9 21,1 8 4 E 1018,8 -
15.09.2018 18:00:00 27,7 21,4 8 4 E 1018,5 -
15.09.2018 17:00:00 28,2 21,7 11 6 ENE 1018,5 -
15.09.2018 16:00:00 28,0 21,5 9 5 NE 1018,6 -
15.09.2018 15:00:00 28,7 22,2 8 4 E 1019,1 -
15.09.2018 14:00:00 28,4 23,0 8 4 ESE 1019,4 -
15.09.2018 13:00:00 26,6 22,8 4 2 SE 1019,5 -
15.09.2018 12:00:00 25,0 22,2 5 3 NNE 1019,7 -
15.09.2018 11:00:00 24,5 22,7 4 2 N 1019,4 -
15.09.2018 10:00:00 22,1 21,0 2 1 O 1019,2 -
15.09.2018 09:00:00 19,1 18,1 0 0 N 1019,0 -
15.09.2018 08:00:00 18,1 17,1 2 1 ONO 1018,3 0,0
15.09.2018 07:00:00 17,3 16,1 0 0 N 1017,8 -
15.09.2018 06:00:00 18,0 16,8 0 0 N 1017,4 -
15.09.2018 05:00:00 18,1 16,9 2 1 O 1017,0 -

tt = Temperatura
td = dewpoint
ff = velocità del vento
dd = direzione del vento
ppp = reduced air pressure
rr = precipitazioni

Stazioni seguenti

WeatherPro
AMSI
MeteoEarth